| time (UTC) | temp C | wind direction | speed KPH | gust KPH | rain 1hr cm | rain 24hr cm | rain mn cm | humidity % | barometer mb |
| 20260507073716 | 4 | 19 | 0.0 | 0.0 | 0.00 | 0.00 | 0.00 | 73 | 1010.9 |
| 20260507073213 | 5 | 16 | 0.0 | 0.0 | 0.00 | 0.00 | 0.00 | 73 | 1010.9 |
| 20260507072711 | 5 | 9 | 0.0 | 0.0 | 0.00 | 0.00 | 0.00 | 69 | 1011.0 |
| 20260507072208 | 5 | 11 | 0.0 | 0.0 | 0.00 | 0.00 | 0.00 | 68 | 1011.0 |
| 20260507071705 | 5 | 7 | 0.0 | 0.0 | 0.00 | 0.00 | 0.00 | 66 | 1011.0 |
| 20260507071201 | 5 | 9 | 0.0 | 0.0 | 0.00 | 0.00 | 0.00 | 67 | 1011.0 |
| 20260507070659 | 5 | 11 | 0.0 | 0.0 | 0.00 | 0.00 | 0.00 | 66 | 1011.0 |
| 20260507070155 | 6 | 7 | 0.0 | 0.0 | 0.00 | 0.00 | 0.00 | 64 | 1011.1 |
| 20260507065652 | 6 | 9 | 0.0 | 0.0 | 0.00 | 0.00 | 0.00 | 66 | 1011.1 |
| 20260507065149 | 6 | 11 | 0.0 | 0.0 | 0.00 | 0.00 | 0.00 | 63 | 1011.3 |
| 20260507064646 | 6 | 11 | 0.0 | 0.0 | 0.00 | 0.00 | 0.00 | 63 | 1011.3 |
| 20260507064144 | 6 | 7 | 0.0 | 0.0 | 0.00 | 0.00 | 0.00 | 62 | 1011.0 |
| 20260507063642 | 6 | 12 | 0.0 | 0.0 | 0.00 | 0.00 | 0.00 | 62 | 1011.3 |
| 20260507063138 | 6 | 17 | 0.0 | 0.0 | 0.00 | 0.00 | 0.00 | 60 | 1011.4 |
| 20260507062635 | 7 | 12 | 0.0 | 0.0 | 0.00 | 0.00 | 0.00 | 60 | 1011.2 |
| 20260507062133 | 7 | 11 | 0.0 | 0.0 | 0.00 | 0.00 | 0.00 | 60 | 1011.3 |
| 20260507061631 | 6 | 19 | 0.0 | 0.0 | 0.00 | 0.00 | 0.00 | 60 | 1011.2 |
| 20260507061128 | 6 | 11 | 0.0 | 0.0 | 0.00 | 0.00 | 0.00 | 59 | 1011.4 |
| 20260507060626 | 7 | 1 | 0.0 | 0.0 | 0.00 | 0.00 | 0.00 | 60 | 1011.3 |
| 20260507060123 | 7 | 5 | 0.0 | 0.0 | 0.00 | 0.00 | 0.00 | 59 | 1011.3 |
| 20260507055618 | 7 | 359 | 0.0 | 0.0 | 0.00 | 0.00 | 0.00 | 59 | 1011.4 |
| 20260507055114 | 7 | 18 | 0.0 | 0.0 | 0.00 | 0.00 | 0.00 | 57 | 1011.4 |
| 20260507054610 | 7 | 30 | 0.0 | 0.0 | 0.00 | 0.00 | 0.00 | 57 | 1011.6 |
| 20260507054108 | 7 | 11 | 1.6 | 1.6 | 0.00 | 0.00 | 0.00 | 58 | 1011.4 |
| 20260507053605 | 7 | 6 | 0.0 | 0.0 | 0.00 | 0.00 | 0.00 | 57 | 1011.7 |
| 20260507053104 | 7 | 9 | 0.0 | 0.0 | 0.00 | 0.00 | 0.00 | 57 | 1011.5 |
| 20260507052601 | 7 | 25 | 0.0 | 0.0 | 0.00 | 0.00 | 0.00 | 57 | 1011.6 |
| 20260507052058 | 7 | 3 | 0.0 | 0.0 | 0.00 | 0.00 | 0.00 | 56 | 1011.5 |
| 20260507051555 | 7 | 10 | 0.0 | 0.0 | 0.00 | 0.00 | 0.00 | 55 | 1011.6 |
| 20260507051052 | 8 | 8 | 0.0 | 0.0 | 0.00 | 0.00 | 0.00 | 55 | 1011.6 |
| 20260507050549 | 8 | 339 | 0.0 | 0.0 | 0.00 | 0.00 | 0.00 | 55 | 1011.7 |
| 20260507050045 | 8 | 358 | 0.0 | 0.0 | 0.00 | 0.00 | 0.00 | 55 | 1011.6 |
| 20260507045542 | 8 | 6 | 0.0 | 0.0 | 0.00 | 0.00 | 0.00 | 56 | 1011.5 |
| 20260507045039 | 8 | 341 | 0.0 | 0.0 | 0.00 | 0.00 | 0.00 | 54 | 1011.6 |
| 20260507044536 | 8 | 344 | 0.0 | 0.0 | 0.00 | 0.00 | 0.00 | 55 | 1011.4 |
| 20260507044033 | 8 | 0 | 0.0 | 0.0 | 0.00 | 0.00 | 0.00 | 55 | 1011.5 |
| 20260507043528 | 8 | 353 | 0.0 | 0.0 | 0.00 | 0.00 | 0.00 | 54 | 1011.6 |
| 20260507043026 | 8 | 326 | 0.0 | 0.0 | 0.00 | 0.00 | 0.00 | 55 | 1011.4 |
| 20260507042522 | 8 | 353 | 0.0 | 0.0 | 0.00 | 0.00 | 0.00 | 55 | 1011.5 |
| 20260507042017 | 8 | 353 | 0.0 | 0.0 | 0.00 | 0.00 | 0.00 | 55 | 1011.5 |
| 20260507041515 | 8 | 358 | 0.0 | 0.0 | 0.00 | 0.00 | 0.00 | 54 | 1011.5 |
| 20260507041011 | 8 | 334 | 0.0 | 0.0 | 0.00 | 0.00 | 0.00 | 54 | 1011.5 |
| 20260507040508 | 8 | 2 | 0.0 | 0.0 | 0.00 | 0.00 | 0.00 | 54 | 1011.6 |
| 20260507040004 | 8 | 359 | 0.0 | 0.0 | 0.00 | 0.00 | 0.00 | 53 | 1011.4 |
| 20260507035500 | 8 | 348 | 0.0 | 0.0 | 0.00 | 0.00 | 0.00 | 53 | 1011.2 |
| 20260507034956 | 8 | 355 | 0.0 | 0.0 | 0.00 | 0.00 | 0.00 | 53 | 1011.6 |
| 20260507034453 | 8 | 11 | 0.0 | 0.0 | 0.00 | 0.00 | 0.00 | 53 | 1011.5 |
| 20260507033951 | 8 | 13 | 0.0 | 0.0 | 0.00 | 0.00 | 0.00 | 53 | 1011.5 |
| 20260507033449 | 8 | 18 | 0.0 | 0.0 | 0.00 | 0.00 | 0.00 | 51 | 1011.6 |
| 20260507032946 | 8 | 17 | 0.0 | 0.0 | 0.00 | 0.00 | 0.00 | 51 | 1011.7 |
| 20260507032443 | 8 | 10 | 0.0 | 0.0 | 0.00 | 0.00 | 0.00 | 51 | 1011.6 |
| 20260507031939 | 8 | 17 | 0.0 | 0.0 | 0.00 | 0.00 | 0.00 | 51 | 1011.6 |
| 20260507031436 | 8 | 14 | 0.0 | 0.0 | 0.00 | 0.00 | 0.00 | 51 | 1011.9 |
| 20260507030933 | 8 | 39 | 0.0 | 0.0 | 0.00 | 0.00 | 0.00 | 50 | 1011.7 |
| 20260507030430 | 8 | 21 | 1.6 | 1.6 | 0.00 | 0.00 | 0.00 | 50 | 1011.8 |
| 20260507025927 | 8 | 324 | 1.6 | 1.6 | 0.00 | 0.00 | 0.00 | 50 | 1011.9 |
| 20260507025424 | 9 | 15 | 0.0 | 0.0 | 0.00 | 0.00 | 0.00 | 52 | 1011.9 |
| 20260507024922 | 9 | 7 | 0.0 | 0.0 | 0.00 | 0.00 | 0.00 | 51 | 1011.9 |
| 20260507024419 | 9 | 328 | 0.0 | 0.0 | 0.00 | 0.00 | 0.00 | 49 | 1011.5 |
| 20260507023915 | 9 | 12 | 0.0 | 0.0 | 0.00 | 0.00 | 0.00 | 49 | 1011.8 |
| 20260507023412 | 9 | 253 | 0.0 | 1.6 | 0.00 | 0.00 | 0.00 | 49 | 1011.6 |
| 20260507022909 | 9 | 0 | 0.0 | 0.0 | 0.00 | 0.00 | 0.00 | 48 | 1011.6 |
| 20260507022405 | 9 | 1 | 0.0 | 0.0 | 0.00 | 0.00 | 0.00 | 49 | 1011.7 |
| 20260507021901 | 9 | 24 | 0.0 | 0.0 | 0.00 | 0.00 | 0.00 | 49 | 1011.7 |
| 20260507021356 | 9 | 357 | 0.0 | 0.0 | 0.00 | 0.00 | 0.00 | 48 | 1011.7 |
| 20260507020855 | 9 | 12 | 1.6 | 1.6 | 0.00 | 0.00 | 0.00 | 47 | 1011.5 |
| 20260507020351 | 9 | 341 | 0.0 | 0.0 | 0.00 | 0.00 | 0.00 | 48 | 1011.5 |
| 20260507015848 | 9 | 351 | 0.0 | 0.0 | 0.00 | 0.00 | 0.00 | 48 | 1011.6 |
| 20260507015346 | 9 | 304 | 0.0 | 0.0 | 0.00 | 0.00 | 0.00 | 47 | 1011.5 |
| 20260507014843 | 10 | 6 | 0.0 | 0.0 | 0.00 | 0.00 | 0.00 | 47 | 1011.4 |
| 20260507014339 | 10 | 51 | 1.6 | 1.6 | 0.00 | 0.00 | 0.00 | 46 | 1011.3 |
| 20260507013836 | 10 | 0 | 0.0 | 1.6 | 0.00 | 0.00 | 0.00 | 46 | 1011.4 |
| 20260507013333 | 10 | 3 | 1.6 | 1.6 | 0.00 | 0.00 | 0.00 | 47 | 1011.4 |
| 20260507012831 | 10 | 3 | 0.0 | 1.6 | 0.00 | 0.00 | 0.00 | 48 | 1011.3 |
| 20260507012326 | 10 | 25 | 0.0 | 0.0 | 0.00 | 0.00 | 0.00 | 47 | 1011.2 |
| 20260507011823 | 10 | 1 | 0.0 | 0.0 | 0.00 | 0.00 | 0.00 | 46 | 1011.2 |
| 20260507011320 | 10 | 6 | 0.0 | 0.0 | 0.00 | 0.00 | 0.00 | 47 | 1011.2 |
| 20260507010820 | 10 | 7 | 0.0 | 0.0 | 0.00 | 0.00 | 0.00 | 46 | 1011.3 |
| 20260507010315 | 10 | 356 | 0.0 | 0.0 | 0.00 | 0.00 | 0.00 | 46 | 1011.2 |
| 20260507005813 | 10 | 7 | 0.0 | 0.0 | 0.00 | 0.00 | 0.00 | 46 | 1011.2 |
| 20260507005310 | 10 | 356 | 0.0 | 0.0 | 0.00 | 0.00 | 0.00 | 46 | 1011.3 |
| 20260507004807 | 10 | 346 | 0.0 | 0.0 | 0.00 | 0.00 | 0.00 | 46 | 1011.1 |
| 20260507004304 | 10 | 356 | 0.0 | 0.0 | 0.00 | 0.00 | 0.00 | 46 | 1011.1 |
| 20260507003801 | 10 | 5 | 0.0 | 0.0 | 0.00 | 0.00 | 0.00 | 44 | 1010.8 |
| 20260507003255 | 10 | 10 | 0.0 | 0.0 | 0.00 | 0.00 | 0.00 | 44 | 1011.0 |
| 20260507002751 | 10 | 28 | 0.0 | 0.0 | 0.00 | 0.00 | 0.00 | 43 | 1011.3 |
| 20260507002248 | 10 | 359 | 0.0 | 0.0 | 0.00 | 0.00 | 0.00 | 43 | 1011.3 |
| 20260507001745 | 10 | 11 | 0.0 | 0.0 | 0.00 | 0.00 | 0.00 | 43 | 1011.1 |
| 20260507001242 | 10 | 304 | 1.6 | 1.6 | 0.00 | 0.00 | 0.00 | 43 | 1011.1 |
| 20260507000738 | 10 | 18 | 1.6 | 3.2 | 0.00 | 0.00 | 0.00 | 43 | 1011.0 |
| 20260507000234 | 10 | 35 | 0.0 | 0.0 | 0.00 | 0.00 | 0.00 | 43 | 1011.0 |
| 20260506235731 | 10 | 324 | 1.6 | 3.2 | 0.00 | 0.00 | 0.00 | 42 | 1011.0 |
| 20260506235227 | 10 | 346 | 4.8 | 8.0 | 0.00 | 0.00 | 0.00 | 41 | 1011.0 |
| 20260506234723 | 11 | 357 | 1.6 | 3.2 | 0.00 | 0.00 | 0.00 | 41 | 1010.8 |
| 20260506234221 | 11 | 344 | 4.8 | 8.0 | 0.00 | 0.00 | 0.00 | 41 | 1010.8 |
| 20260506233719 | 11 | 337 | 1.6 | 1.6 | 0.00 | 0.00 | 0.00 | 41 | 1010.8 |
| 20260506233215 | 11 | 33 | 3.2 | 3.2 | 0.00 | 0.00 | 0.00 | 40 | 1010.9 |
| 20260506232711 | 11 | 14 | 3.2 | 3.2 | 0.00 | 0.00 | 0.00 | 40 | 1011.0 |
| 20260506232206 | 11 | 307 | 0.0 | 0.0 | 0.00 | 0.00 | 0.00 | 42 | 1011.0 |
| 20260506231704 | 11 | 69 | 4.8 | 4.8 | 0.00 | 0.00 | 0.00 | 40 | 1010.8 |
| 20260506231203 | 11 | 354 | 4.8 | 9.7 | 0.00 | 0.00 | 0.00 | 39 | 1010.8 |
| 20260506230658 | 11 | 40 | 4.8 | 8.0 | 0.00 | 0.00 | 0.00 | 40 | 1010.8 |
| 20260506230155 | 11 | 12 | 4.8 | 4.8 | 0.00 | 0.00 | 0.00 | 40 | 1010.9 |
| 20260506225652 | 11 | 332 | 0.0 | 1.6 | 0.00 | 0.00 | 0.00 | 40 | 1011.1 |
| 20260506225149 | 11 | 13 | 0.0 | 1.6 | 0.00 | 0.00 | 0.00 | 41 | 1010.9 |
| 20260506224645 | 11 | 351 | 3.2 | 4.8 | 0.00 | 0.00 | 0.00 | 39 | 1011.0 |
| 20260506224142 | 11 | 15 | 3.2 | 3.2 | 0.00 | 0.00 | 0.00 | 40 | 1010.8 |
| 20260506223639 | 11 | 59 | 6.4 | 8.0 | 0.00 | 0.00 | 0.00 | 39 | 1011.0 |
| 20260506223134 | 11 | 68 | 9.7 | 11.3 | 0.00 | 0.00 | 0.00 | 38 | 1011.0 |
| 20260506222632 | 11 | 9 | 6.4 | 8.0 | 0.00 | 0.00 | 0.00 | 39 | 1010.7 |
| 20260506222128 | 11 | 334 | 3.2 | 4.8 | 0.00 | 0.00 | 0.00 | 40 | 1010.7 |
| 20260506221626 | 11 | 10 | 1.6 | 1.6 | 0.00 | 0.00 | 0.00 | 39 | 1010.7 |
| 20260506221123 | 11 | 329 | 3.2 | 3.2 | 0.00 | 0.00 | 0.00 | 39 | 1010.9 |
| 20260506220620 | 12 | 324 | 3.2 | 4.8 | 0.00 | 0.00 | 0.00 | 37 | 1011.0 |
| 20260506220115 | 12 | 311 | 1.6 | 3.2 | 0.00 | 0.00 | 0.00 | 38 | 1010.7 |
| 20260506215612 | 12 | 35 | 6.4 | 9.7 | 0.00 | 0.00 | 0.00 | 39 | 1010.8 |
| 20260506215107 | 12 | 33 | 4.8 | 8.0 | 0.00 | 0.00 | 0.00 | 37 | 1010.7 |
| 20260506214605 | 12 | 337 | 3.2 | 3.2 | 0.00 | 0.00 | 0.00 | 39 | 1010.8 |
| 20260506214102 | 12 | 348 | 4.8 | 9.7 | 0.00 | 0.00 | 0.00 | 38 | 1011.0 |
| 20260506213600 | 12 | 63 | 8.0 | 9.7 | 0.00 | 0.00 | 0.00 | 37 | 1010.6 |
| 20260506213057 | 12 | 16 | 4.8 | 4.8 | 0.00 | 0.00 | 0.00 | 39 | 1010.6 |
| 20260506212554 | 12 | 342 | 3.2 | 4.8 | 0.00 | 0.00 | 0.00 | 39 | 1010.7 |
| 20260506212048 | 12 | 15 | 4.8 | 8.0 | 0.00 | 0.00 | 0.00 | 39 | 1010.7 |
| 20260506211545 | 12 | 20 | 1.6 | 3.2 | 0.00 | 0.00 | 0.00 | 41 | 1010.6 |
| 20260506211042 | 11 | 6 | 3.2 | 3.2 | 0.00 | 0.00 | 0.00 | 41 | 1010.5 |
| 20260506210538 | 11 | 305 | 1.6 | 3.2 | 0.00 | 0.00 | 0.00 | 43 | 1010.6 |
| 20260506210035 | 11 | 322 | 1.6 | 4.8 | 0.00 | 0.00 | 0.00 | 42 | 1010.9 |
| 20260506205532 | 12 | 334 | 3.2 | 4.8 | 0.00 | 0.00 | 0.00 | 40 | 1010.6 |
| 20260506205027 | 12 | 3 | 3.2 | 3.2 | 0.00 | 0.00 | 0.00 | 41 | 1010.6 |
| 20260506204525 | 12 | 19 | 8.0 | 9.7 | 0.00 | 0.00 | 0.00 | 40 | 1010.8 |
| 20260506204022 | 12 | 34 | 4.8 | 4.8 | 0.00 | 0.00 | 0.00 | 40 | 1010.7 |
| 20260506203520 | 12 | 10 | 4.8 | 4.8 | 0.00 | 0.00 | 0.00 | 40 | 1010.7 |
| 20260506203016 | 13 | 24 | 4.8 | 8.0 | 0.00 | 0.00 | 0.00 | 38 | 1010.8 |
| 20260506202514 | 12 | 55 | 3.2 | 9.7 | 0.00 | 0.00 | 0.00 | 40 | 1010.7 |
| 20260506202010 | 12 | 40 | 1.6 | 3.2 | 0.00 | 0.00 | 0.00 | 40 | 1010.7 |
| 20260506201508 | 11 | 355 | 1.6 | 3.2 | 0.00 | 0.00 | 0.00 | 42 | 1010.7 |
| 20260506201004 | 11 | 30 | 1.6 | 3.2 | 0.00 | 0.00 | 0.00 | 42 | 1010.7 |
| 20260506200501 | 11 | 254 | 0.0 | 0.0 | 0.00 | 0.00 | 0.00 | 42 | 1010.8 |
| 20260506195957 | 12 | 7 | 4.8 | 8.0 | 0.00 | 0.00 | 0.00 | 41 | 1011.1 |
| 20260506195455 | 12 | 75 | 3.2 | 3.2 | 0.00 | 0.00 | 0.00 | 42 | 1010.9 |
| 20260506194950 | 12 | 20 | 3.2 | 3.2 | 0.00 | 0.00 | 0.00 | 41 | 1010.8 |
| 20260506194448 | 11 | 37 | 0.0 | 1.6 | 0.00 | 0.00 | 0.00 | 43 | 1010.6 |
| 20260506193944 | 11 | 351 | 1.6 | 3.2 | 0.00 | 0.00 | 0.00 | 40 | 1010.8 |
| 20260506193442 | 11 | 319 | 4.8 | 4.8 | 0.00 | 0.00 | 0.00 | 42 | 1011.1 |
| 20260506192938 | 11 | 15 | 1.6 | 3.2 | 0.00 | 0.00 | 0.00 | 43 | 1011.1 |
| 20260506192436 | 11 | 15 | 1.6 | 1.6 | 0.00 | 0.00 | 0.00 | 42 | 1010.9 |
| 20260506191932 | 11 | 348 | 3.2 | 3.2 | 0.00 | 0.00 | 0.00 | 42 | 1011.1 |
| 20260506191429 | 11 | 0 | 0.0 | 1.6 | 0.00 | 0.00 | 0.00 | 42 | 1011.2 |
| 20260506190925 | 12 | 39 | 3.2 | 3.2 | 0.00 | 0.00 | 0.00 | 42 | 1011.0 |
| 20260506190422 | 12 | 344 | 4.8 | 4.8 | 0.00 | 0.00 | 0.00 | 41 | 1010.9 |
| 20260506185919 | 12 | 16 | 0.0 | 0.0 | 0.00 | 0.00 | 0.00 | 44 | 1011.0 |
| 20260506185416 | 12 | 5 | 3.2 | 3.2 | 0.00 | 0.00 | 0.00 | 41 | 1011.1 |
| 20260506184913 | 11 | 30 | 1.6 | 3.2 | 0.00 | 0.00 | 0.00 | 44 | 1011.1 |
| 20260506184410 | 11 | 26 | 4.8 | 4.8 | 0.00 | 0.00 | 0.00 | 43 | 1011.2 |
| 20260506183908 | 11 | 30 | 3.2 | 3.2 | 0.00 | 0.00 | 0.00 | 45 | 1011.3 |
| 20260506183402 | 11 | 37 | 0.0 | 0.0 | 0.00 | 0.00 | 0.00 | 43 | 1011.2 |
| 20260506182900 | 13 | 325 | 6.4 | 9.7 | 0.00 | 0.00 | 0.00 | 40 | 1011.0 |
| 20260506182357 | 13 | 28 | 3.2 | 3.2 | 0.00 | 0.00 | 0.00 | 42 | 1010.9 |
| 20260506181854 | 12 | 7 | 3.2 | 3.2 | 0.00 | 0.00 | 0.00 | 42 | 1010.9 |
| 20260506181352 | 12 | 135 | 0.0 | 0.0 | 0.00 | 0.00 | 0.00 | 47 | 1011.0 |
| 20260506180849 | 11 | 51 | 4.8 | 8.0 | 0.00 | 0.00 | 0.00 | 45 | 1011.1 |
| 20260506180345 | 11 | 12 | 3.2 | 3.2 | 0.00 | 0.00 | 0.00 | 44 | 1011.0 |
| 20260506175842 | 12 | 49 | 0.0 | 1.6 | 0.00 | 0.00 | 0.00 | 45 | 1011.1 |
| 20260506175338 | 11 | 82 | 3.2 | 4.8 | 0.00 | 0.00 | 0.00 | 44 | 1011.2 |
| 20260506174835 | 10 | 3 | 0.0 | 0.0 | 0.00 | 0.00 | 0.00 | 48 | 1011.2 |
| 20260506174333 | 11 | 356 | 8.0 | 11.3 | 0.00 | 0.00 | 0.00 | 46 | 1011.2 |
| 20260506173831 | 11 | 335 | 3.2 | 4.8 | 0.00 | 0.00 | 0.00 | 47 | 1011.5 |
| 20260506173327 | 11 | 308 | 1.6 | 1.6 | 0.00 | 0.00 | 0.00 | 48 | 1011.4 |
| 20260506172824 | 10 | 359 | 1.6 | 1.6 | 0.00 | 0.00 | 0.00 | 46 | 1011.4 |
| 20260506172321 | 10 | 22 | 1.6 | 3.2 | 0.00 | 0.00 | 0.00 | 46 | 1011.4 |
| 20260506171818 | 11 | 32 | 4.8 | 8.0 | 0.00 | 0.00 | 0.00 | 45 | 1011.7 |
| 20260506171315 | 11 | 21 | 1.6 | 3.2 | 0.00 | 0.00 | 0.00 | 45 | 1011.6 |
| 20260506170813 | 12 | 29 | 4.8 | 4.8 | 0.00 | 0.00 | 0.00 | 42 | 1011.8 |
| 20260506170309 | 11 | 27 | 0.0 | 1.6 | 0.00 | 0.00 | 0.00 | 44 | 1011.6 |
| 20260506165808 | 11 | 349 | 4.8 | 4.8 | 0.00 | 0.00 | 0.00 | 43 | 1011.6 |
| 20260506165306 | 11 | 359 | 1.6 | 8.0 | 0.00 | 0.00 | 0.00 | 44 | 1011.7 |
| 20260506164802 | 11 | 349 | 4.8 | 4.8 | 0.00 | 0.00 | 0.00 | 45 | 1011.5 |
| 20260506164258 | 11 | 84 | 3.2 | 4.8 | 0.00 | 0.00 | 0.00 | 43 | 1011.4 |
| 20260506163755 | 11 | 17 | 1.6 | 1.6 | 0.00 | 0.00 | 0.00 | 43 | 1011.7 |
| 20260506163250 | 11 | 354 | 0.0 | 0.0 | 0.00 | 0.00 | 0.00 | 46 | 1011.6 |
| 20260506162746 | 10 | 5 | 0.0 | 0.0 | 0.00 | 0.00 | 0.00 | 48 | 1011.5 |
| 20260506162244 | 11 | 352 | 3.2 | 3.2 | 0.00 | 0.00 | 0.00 | 46 | 1011.5 |
| 20260506161741 | 11 | 355 | 3.2 | 3.2 | 0.00 | 0.00 | 0.00 | 46 | 1011.8 |
| 20260506161238 | 11 | 353 | 3.2 | 3.2 | 0.00 | 0.00 | 0.00 | 46 | 1011.6 |
| 20260506160736 | 11 | 28 | 1.6 | 1.6 | 0.00 | 0.00 | 0.00 | 47 | 1011.7 |
| 20260506160232 | 11 | 349 | 1.6 | 1.6 | 0.00 | 0.00 | 0.00 | 48 | 1011.8 |
| 20260506155731 | 10 | 344 | 1.6 | 3.2 | 0.00 | 0.00 | 0.00 | 48 | 1011.8 |
| 20260506155228 | 10 | 342 | 1.6 | 1.6 | 0.00 | 0.00 | 0.00 | 49 | 1011.8 |
| 20260506153335 | 10 | 349 | 1.6 | 1.6 | 0.00 | 0.00 | 0.00 | 52 | 1011.6 |
| 20260506152832 | 10 | 143 | 3.2 | 4.8 | 0.00 | 0.00 | 0.00 | 50 | 1011.5 |
| 20260506152329 | 10 | 2 | 1.6 | 3.2 | 0.00 | 0.00 | 0.00 | 55 | 1011.5 |
| 20260506151828 | 10 | 33 | 0.0 | 0.0 | 0.00 | 0.00 | 0.00 | 58 | 1011.3 |
| 20260506151324 | 10 | 7 | 3.2 | 3.2 | 0.00 | 0.00 | 0.00 | 58 | 1011.3 |
| 20260506150821 | 10 | 175 | 0.0 | 1.6 | 0.00 | 0.00 | 0.00 | 56 | 1011.5 |
| 20260506150318 | 10 | 312 | 1.6 | 1.6 | 0.00 | 0.00 | 0.00 | 50 | 1011.5 |
| 20260506145815 | 9 | 17 | 1.6 | 3.2 | 0.00 | 0.00 | 0.00 | 54 | 1011.6 |
| 20260506145311 | 10 | 350 | 8.0 | 8.0 | 0.00 | 0.00 | 0.00 | 52 | 1011.4 |
| 20260506144809 | 10 | 8 | 3.2 | 4.8 | 0.00 | 0.00 | 0.00 | 53 | 1011.5 |
| 20260506144305 | 10 | 163 | 1.6 | 3.2 | 0.00 | 0.00 | 0.00 | 56 | 1011.3 |
| 20260506143803 | 9 | 3 | 4.8 | 4.8 | 0.00 | 0.00 | 0.00 | 55 | 1011.5 |
| 20260506143300 | 9 | 287 | 1.6 | 1.6 | 0.00 | 0.00 | 0.00 | 57 | 1011.2 |
| 20260506142758 | 8 | 6 | 1.6 | 3.2 | 0.00 | 0.00 | 0.00 | 56 | 1011.2 |
| 20260506142256 | 8 | 110 | 3.2 | 3.2 | 0.00 | 0.00 | 0.00 | 58 | 1011.0 |
| 20260506141754 | 9 | 16 | 0.0 | 0.0 | 0.00 | 0.00 | 0.00 | 56 | 1011.0 |
| 20260506141252 | 9 | 145 | 1.6 | 1.6 | 0.00 | 0.00 | 0.00 | 58 | 1011.0 |
| 20260506140749 | 9 | 17 | 3.2 | 3.2 | 0.00 | 0.00 | 0.00 | 55 | 1010.7 |
| 20260506140246 | 10 | 5 | 4.8 | 4.8 | 0.00 | 0.00 | 0.00 | 55 | 1010.8 |
| 20260506135743 | 9 | 19 | 0.0 | 0.0 | 0.00 | 0.00 | 0.00 | 56 | 1010.8 |
| 20260506135239 | 8 | 302 | 0.0 | 1.6 | 0.00 | 0.00 | 0.00 | 59 | 1010.8 |
| 20260506134736 | 9 | 7 | 1.6 | 1.6 | 0.00 | 0.00 | 0.00 | 55 | 1010.7 |
| 20260506134233 | 10 | 11 | 0.0 | 0.0 | 0.00 | 0.00 | 0.00 | 56 | 1010.8 |
| 20260506133730 | 9 | 8 | 0.0 | 0.0 | 0.00 | 0.00 | 0.00 | 56 | 1010.7 |
| 20260506133226 | 8 | 26 | 1.6 | 3.2 | 0.00 | 0.00 | 0.00 | 59 | 1010.8 |
| 20260506132723 | 8 | 336 | 3.2 | 3.2 | 0.00 | 0.00 | 0.00 | 61 | 1010.6 |
| 20260506132221 | 8 | 357 | 3.2 | 4.8 | 0.00 | 0.00 | 0.00 | 58 | 1010.8 |
| 20260506131719 | 8 | 28 | 0.0 | 1.6 | 0.00 | 0.00 | 0.00 | 58 | 1010.6 |
| 20260506131214 | 8 | 358 | 3.2 | 3.2 | 0.00 | 0.00 | 0.00 | 59 | 1010.5 |
| 20260506130711 | 8 | 17 | 1.6 | 3.2 | 0.00 | 0.00 | 0.00 | 60 | 1010.5 |
| 20260506130208 | 7 | 20 | 0.0 | 1.6 | 0.00 | 0.00 | 0.00 | 59 | 1010.4 |
| 20260506125706 | 7 | 15 | 1.6 | 1.6 | 0.00 | 0.00 | 0.00 | 59 | 1010.6 |
| 20260506125204 | 7 | 27 | 1.6 | 1.6 | 0.00 | 0.00 | 0.00 | 59 | 1010.4 |
| 20260506124702 | 8 | 18 | 0.0 | 1.6 | 0.00 | 0.00 | 0.00 | 58 | 1010.4 |
| 20260506124200 | 7 | 4 | 0.0 | 1.6 | 0.00 | 0.00 | 0.00 | 59 | 1010.3 |
| 20260506123657 | 7 | 35 | 0.0 | 0.0 | 0.00 | 0.00 | 0.00 | 59 | 1010.1 |
| 20260506123155 | 7 | 7 | 1.6 | 1.6 | 0.00 | 0.00 | 0.00 | 61 | 1010.1 |
| 20260506122652 | 7 | 14 | 0.0 | 0.0 | 0.00 | 0.00 | 0.00 | 60 | 1010.0 |
| 20260506122149 | 7 | 9 | 1.6 | 3.2 | 0.00 | 0.00 | 0.00 | 61 | 1010.0 |
| 20260506121647 | 6 | 14 | 1.6 | 1.6 | 0.00 | 0.00 | 0.00 | 62 | 1009.7 |
| 20260506121143 | 6 | 359 | 0.0 | 1.6 | 0.00 | 0.00 | 0.00 | 62 | 1010.0 |
| 20260506120641 | 6 | 9 | 0.0 | 1.6 | 0.00 | 0.00 | 0.00 | 63 | 1009.6 |
| 20260506120138 | 6 | 14 | 0.0 | 1.6 | 0.00 | 0.00 | 0.00 | 64 | 1009.6 |
| 20260506115637 | 6 | 26 | 0.0 | 0.0 | 0.00 | 0.00 | 0.00 | 65 | 1009.5 |
| 20260506115134 | 5 | 5 | 0.0 | 0.0 | 0.00 | 0.00 | 0.00 | 65 | 1009.7 |
| 20260506114631 | 5 | 10 | 1.6 | 3.2 | 0.00 | 0.00 | 0.00 | 66 | 1009.4 |
| 20260506114129 | 5 | 6 | 4.8 | 4.8 | 0.00 | 0.00 | 0.00 | 66 | 1009.4 |
| 20260506113628 | 5 | 13 | 0.0 | 0.0 | 0.00 | 0.00 | 0.00 | 68 | 1009.2 |
| 20260506113124 | 5 | 11 | 0.0 | 0.0 | 0.00 | 0.00 | 0.00 | 67 | 1009.2 |
| 20260506112621 | 5 | 12 | 0.0 | 1.6 | 0.00 | 0.00 | 0.00 | 67 | 1009.1 |
| 20260506112118 | 5 | 358 | 0.0 | 0.0 | 0.00 | 0.00 | 0.00 | 68 | 1009.3 |
| 20260506111616 | 5 | 3 | 0.0 | 0.0 | 0.00 | 0.00 | 0.00 | 69 | 1009.1 |
| 20260506111113 | 5 | 8 | 0.0 | 0.0 | 0.00 | 0.00 | 0.00 | 69 | 1008.9 |
| 20260506110611 | 5 | 14 | 0.0 | 0.0 | 0.00 | 0.00 | 0.00 | 68 | 1009.1 |
| 20260506110108 | 5 | 23 | 0.0 | 0.0 | 0.00 | 0.00 | 0.00 | 69 | 1008.8 |
| 20260506105604 | 5 | 345 | 0.0 | 0.0 | 0.00 | 0.00 | 0.00 | 69 | 1009.0 |
| 20260506105101 | 5 | 12 | 0.0 | 0.0 | 0.00 | 0.00 | 0.00 | 69 | 1008.9 |
| 20260506104559 | 5 | 359 | 0.0 | 0.0 | 0.00 | 0.00 | 0.00 | 69 | 1008.9 |
| 20260506104057 | 5 | 10 | 0.0 | 0.0 | 0.00 | 0.00 | 0.00 | 70 | 1008.6 |
| 20260506103554 | 5 | 16 | 0.0 | 0.0 | 0.00 | 0.00 | 0.00 | 69 | 1008.5 |
| 20260506103050 | 5 | 340 | 0.0 | 0.0 | 0.00 | 0.00 | 0.00 | 69 | 1008.5 |
| 20260506102549 | 5 | 13 | 0.0 | 0.0 | 0.00 | 0.00 | 0.00 | 68 | 1008.6 |
| 20260506102046 | 5 | 352 | 0.0 | 0.0 | 0.00 | 0.00 | 0.00 | 68 | 1008.6 |
| 20260506101542 | 5 | 316 | 0.0 | 0.0 | 0.00 | 0.00 | 0.00 | 68 | 1008.5 |
| 20260506101040 | 5 | 16 | 0.0 | 0.0 | 0.00 | 0.00 | 0.00 | 68 | 1008.5 |
| 20260506100538 | 5 | 0 | 0.0 | 0.0 | 0.00 | 0.00 | 0.00 | 68 | 1008.6 |
| 20260506100035 | 5 | 13 | 0.0 | 0.0 | 0.00 | 0.00 | 0.00 | 68 | 1008.4 |
| 20260506095534 | 5 | 3 | 0.0 | 0.0 | 0.00 | 0.00 | 0.00 | 68 | 1008.2 |
| 20260506095030 | 5 | 7 | 0.0 | 0.0 | 0.00 | 0.00 | 0.00 | 68 | 1008.1 |
| 20260506094528 | 5 | 23 | 0.0 | 0.0 | 0.00 | 0.00 | 0.00 | 67 | 1008.3 |
| 20260506094026 | 5 | 10 | 0.0 | 0.0 | 0.00 | 0.00 | 0.00 | 66 | 1007.9 |
| 20260506093524 | 6 | 16 | 0.0 | 0.0 | 0.00 | 0.00 | 0.00 | 64 | 1007.9 |
| 20260506093021 | 6 | 10 | 0.0 | 0.0 | 0.00 | 0.00 | 0.00 | 65 | 1007.8 |
| 20260506092519 | 6 | 11 | 0.0 | 0.0 | 0.00 | 0.00 | 0.00 | 64 | 1008.0 |
| 20260506092015 | 6 | 10 | 0.0 | 0.0 | 0.00 | 0.00 | 0.00 | 64 | 1007.9 |
| 20260506091514 | 6 | 330 | 0.0 | 0.0 | 0.00 | 0.00 | 0.00 | 64 | 1007.7 |
| 20260506091010 | 6 | 13 | 0.0 | 0.0 | 0.00 | 0.00 | 0.00 | 64 | 1007.6 |
| 20260506090509 | 6 | 3 | 0.0 | 0.0 | 0.00 | 0.00 | 0.00 | 63 | 1007.6 |
| 20260506090004 | 6 | 10 | 0.0 | 0.0 | 0.00 | 0.00 | 0.00 | 62 | 1007.4 |
| 20260506085501 | 6 | 12 | 0.0 | 0.0 | 0.00 | 0.00 | 0.00 | 63 | 1007.8 |
| 20260506084958 | 6 | 4 | 0.0 | 0.0 | 0.00 | 0.00 | 0.00 | 62 | 1007.8 |
| 20260506084455 | 6 | 10 | 0.0 | 0.0 | 0.00 | 0.00 | 0.00 | 62 | 1007.9 |
| 20260506083951 | 6 | 29 | 0.0 | 1.6 | 0.00 | 0.00 | 0.00 | 61 | 1007.9 |
| 20260506083448 | 6 | 7 | 0.0 | 1.6 | 0.00 | 0.00 | 0.00 | 62 | 1007.6 |
| 20260506082945 | 6 | 49 | 0.0 | 0.0 | 0.00 | 0.00 | 0.00 | 62 | 1007.7 |
| 20260506082442 | 6 | 21 | 0.0 | 1.6 | 0.00 | 0.00 | 0.00 | 61 | 1008.0 |
| 20260506081938 | 6 | 0 | 1.6 | 1.6 | 0.00 | 0.00 | 0.00 | 60 | 1007.7 |
| 20260506081437 | 6 | 21 | 0.0 | 1.6 | 0.00 | 0.00 | 0.00 | 61 | 1007.8 |
| 20260506080933 | 6 | 5 | 0.0 | 0.0 | 0.00 | 0.00 | 0.00 | 60 | 1007.6 |
| 20260506080430 | 6 | 1 | 0.0 | 0.0 | 0.00 | 0.00 | 0.00 | 61 | 1008.0 |